パンスターズ彗星

P/2022 C2 ( PanSTARRS )

English version
Home page
Updated on December 19, 2023

---------------------------------------------------------------------

・ プロフィール

発見日 2022年2月2日
発見光度 20.8等
発見者 Pan-STARRS 2 telescope (Haleakala)

・ 写真集

・ 軌道要素

Epoch 2023 Sept. 13.0 TT = JDT 2460200.5
T 2022 Aug. 6.30033 TT                                  Rudenko
q   3.3700855            (2000.0)            P               Q
n   0.06639757     Peri.   89.26155     -0.70230313     +0.70134732
a   6.0399675      Node   135.26261     -0.70242201     -0.65488462
e   0.4420358      Incl.    9.98092     -0.11564441     -0.28149259
P  14.8
>From 254 observations 2022 Feb. 2-July 28, mean residual 0".4.

・ 光度変化

        m1 = 5.5 + 5 logΔ + 20.0 log r

---------------------------------------------------------------------

軌道要素はM.P.E.C. 2023-V225に掲載されたものです。
光度グラフはComet for Windowsで作成したものです。

---------------------------------------------------------------------

Copyright(C) Seiichi Yoshida (comet@aerith.net). All rights reserved.